[Date Prev][Date Next][Thread Prev][Thread Next] - [Date Index][Thread Index][Author Index]
2 Line ISS Keps 5-27
- Subject: [sarex] 2 Line ISS Keps 5-27
- From: "Dr Dave Larsen [ PhD ]" <doc@xxxxxxxxxxx>
- Date: Sun, 27 May 2001 02:47:43 -0700
ISS
1 25544U 98067A 01147.04707306 .00035152 00000-0 41796-3 0 76
2 25544 51.5694 195.3669 0017860 89.9130 348.5565 15.60607885143777
----
Via the sarex mailing list at AMSAT.ORG courtesy of AMSAT-NA.
To unsubscribe, send "unsubscribe sarex" to Majordomo@amsat.org
AMSAT Home